Overview Statistics Trail Chart Weather Telemetry Raw packets
 

This is the latest recevied weather packets stored in our database for station/object DF7ER-12. If no packets are shown the sender has not sent any weather packets the latest 10 day(s).

<< 97 98 99 100 101 102 103 >>
Time Temp. Humidity Pressure Rain* Wind** Luminosity Snow
1787936204 26.11° C 95% 997.6 hPa - - - -
1787935904 25.56° C 95% 997.6 hPa - - - -
1787935604 26.11° C 93% 997.6 hPa - - - -
1787935304 25.56° C 95% 997.6 hPa - - - -
1787935004 26.11° C 93% 997.4 hPa - - - -
1787934704 26.11° C 91% 997.4 hPa - - - -
1787934404 25.56° C 99% 996.9 hPa - - - -
1787934104 26.11° C 93% 996.9 hPa - - - -
1787933804 26.11° C 95% 996.6 hPa - - - -
1787933504 26.11° C 96% 996.8 hPa - - - -
1787933204 26.11° C 93% 996.8 hPa - - - -
1787932904 26.67° C 92% 996.5 hPa - - - -
1787932605 26.67° C 91% 996.6 hPa - - - -
1787932304 26.67° C 92% 996.5 hPa - - - -
1787932004 26.67° C 92% 996.7 hPa - - - -
1787931378 26.67° C 93% 996.8 hPa - - - -
1787931078 26.67° C 91% 997 hPa - - - -
1787930778 26.67° C 90% 997 hPa - - - -
1787930478 26.11° C 96% 996.9 hPa - - - -
1787930179 26.11° C 91% 996.8 hPa - - - -
1787929878 26.11° C 91% 996.8 hPa - - - -
1787929579 26.11° C 93% 996.9 hPa - - - -
1787929278 26.11° C 91% 996.9 hPa - - - -
1787928978 26.11° C 91% 997 hPa - - - -
1787928679 26.11° C 89% 997 hPa - - - -

* Rain since midnight (hover to see other rain measurements)
** Current wind speed in m/s (hover to see current wind gust speed)